This demonstration page uses our WeatherBlox Daily Observations layout. Learn more.

Left ArrowRight Arrow

39.51506, -84.39828

Hourly Observations for May 20, 2018

Temp ( °F °C ) Dew Point ( °F °C ) Humidity (%) Winds ( mph kmh ) Pressure ( in mb ) Visibility ( mi km ) Precip ( " mm )
12:15 am 00:15 Clear 66 18.9 66 18.7 99 99 N N/A 29.97 1015 7 11 N/A
12:35 am 00:35 Partly Cloudy with Mist and Fog 65 18.5 65 18.3 99 99 N N/A 29.97 1015 5 8 N/A
12:55 am 00:55 Clear with Mist and Fog 65 18.4 65 18.2 99 99 N N/A 29.97 1015 5 8 N/A
1:15 am 01:15 Clear with Mist and Fog 65 18.3 65 18.1 99 99 N N/A 29.97 1015 4 6 N/A
1:35 am 01:35 Mostly Cloudy with Fog 65 18.2 65 18.1 99 99 N N/A 29.97 1015 0 0 N/A
1:55 am 01:55 Mostly Cloudy with Fog 64 18 64 17.8 99 99 N N/A 29.97 1015 1 1 N/A
2:15 am 02:15 Mostly Cloudy with Fog 64 17.8 64 17.7 99 99 N N/A 29.97 1015 1 1 N/A
2:35 am 02:35 Mostly Cloudy with Fog 62 16.9 62 16.8 99 99 N N/A 29.97 1015 0 0 N/A
2:55 am 02:55 Mostly Cloudy with Fog 63 17.1 63 17 99 99 N N/A 29.97 1015 1 1 N/A
3:15 am 03:15 Mostly Cloudy with Fog 63 17.2 63 17.1 99 99 N N/A 29.97 1015 0 0 N/A
3:35 am 03:35 Mostly Cloudy with Fog 63 17.3 63 17.2 99 99 N N/A 29.97 1015 1 1 N/A
3:55 am 03:55 Mostly Cloudy with Mist and Fog 63 17.2 63 17.1 99 99 NE 3 6 30.00 1016 1 2 N/A
4:15 am 04:15 Mostly Cloudy with Fog 62 16.8 62 16.7 99 99 N N/A 30.00 1016 0 0 N/A
4:35 am 04:35 Partly Cloudy with Fog 61 16.3 61 16.2 99 99 N N/A 30.00 1016 1 1 N/A
4:55 am 04:55 Cloudy with Mist and Fog 63 17.3 63 17.2 99 99 SW 5 7 30.00 1016 1 1 N/A
5:15 am 05:15 Cloudy with Mist and Fog 64 17.7 64 17.7 100 100 N N/A 30.00 1016 3 5 N/A
5:35 am 05:35 Cloudy with Mist and Fog 65 18.3 65 18.2 99 99 W 3 6 30.00 1016 3 5 N/A
5:55 am 05:55 Cloudy with Mist and Fog 65 18.4 65 18.3 99 99 N N/A 30.03 1017 4 6 N/A
6:15 am 06:15 Cloudy with Mist and Fog 65 18.6 65 18.5 99 99 NNE 3 6 30.00 1016 2 3 N/A
6:35 am 06:35 Cloudy with Mist and Fog 66 18.9 66 18.8 99 99 N N/A 30.03 1017 3 4 N/A
6:55 am 06:55 Cloudy with Mist and Fog 66 19 66 19 100 100 N N/A 30.03 1017 3 5 N/A
7:15 am 07:15 Cloudy with Mist and Fog 67 19.3 66 18.9 98 98 N N/A 30.03 1017 4 6 N/A
7:35 am 07:35 Cloudy with Mist and Fog 66 18.7 64 17.8 95 95 N 5 7 30.06 1018 4 6 N/A
7:55 am 07:55 Cloudy with Mist and Fog 65 18.5 63 17.3 93 93 N 6 9 30.06 1018 4 6 N/A
8:15 am 08:15 Cloudy with Mist and Fog 66 18.7 63 17.3 92 92 N 7 11 30.06 1018 4 6 N/A
8:35 am 08:35 Cloudy with Mist and Fog 66 19 63 17.4 91 91 N 6 9 30.06 1018 4 6 N/A
8:55 am 08:55 Cloudy with Mist and Fog 67 19.3 64 17.7 91 91 NNE 5 7 30.06 1018 4 6 N/A
9:15 am 09:15 Cloudy with Mist and Fog 67 19.6 64 17.7 89 89 N 7 11 30.06 1018 4 6 N/A
9:35 am 09:35 Cloudy with Haze 69 20.3 64 18 87 87 N 6 9 30.09 1019 5 8 N/A
9:55 am 09:55 Mostly Cloudy with Haze 70 21.2 64 17.8 81 81 NE 6 9 30.06 1018 5 8 N/A
10:15 am 10:15 Hazy 71 21.9 64 18 79 79 N N/A 30.06 1018 7 11 N/A
10:35 am 10:35 Hazy 72 22.2 65 18.3 79 79 N N/A 30.09 1019 7 11 N/A
10:55 am 10:55 Sunny 73 22.7 65 18.3 76 76 NNE 3 6 30.09 1019 7 11 N/A
11:15 am 11:15 Hazy 73 22.8 66 18.8 78 78 SSE 3 6 30.09 1019 7 11 N/A
11:35 am 11:35 Hazy 75 23.7 66 18.9 75 75 N N/A 30.09 1019 7 11 N/A
11:55 am 11:55 Partly Cloudy 75 23.8 66 19 75 75 N N/A 30.09 1019 7 11 N/A
12:15 pm 12:15 Sunny 76 24.7 67 19.2 72 72 N 5 7 30.09 1019 10 16 N/A
12:35 pm 12:35 Sunny 77 25.1 66 18.8 68 68 SSW 3 6 30.09 1019 10 16 N/A
12:55 pm 12:55 Mostly Cloudy 78 25.8 67 19.7 69 69 S 3 6 30.09 1019 10 16 N/A
1:15 pm 13:15 Mostly Cloudy 78 25.5 66 19.1 68 68 SW 5 7 30.09 1019 10 16 N/A
1:35 pm 13:35 Sunny 79 26.3 68 19.8 68 68 WSW 3 6 30.09 1019 10 16 N/A
1:55 pm 13:55 Partly Cloudy 80 26.4 68 20.1 68 68 SSW 5 7 30.09 1019 10 16 N/A
2:15 pm 14:15 Partly Cloudy 79 26.1 68 20.1 70 70 N N/A 30.09 1019 10 16 N/A
2:35 pm 14:35 Partly Cloudy 79 26.2 68 20.2 70 70 N N/A 30.06 1018 10 16 N/A
2:55 pm 14:55 Mostly Cloudy 80 26.4 67 19.7 67 67 N N/A 30.09 1019 10 16 N/A
3:15 pm 15:15 Sunny 80 26.5 67 19.2 64 64 WNW 7 11 30.06 1018 10 16 N/A
3:35 pm 15:35 Sunny 81 27.1 67 19.2 62 62 NW 5 7 30.06 1018 10 16 N/A
3:55 pm 15:55 Sunny 82 27.6 66 19 59 59 N N/A 30.06 1018 10 16 N/A
4:15 pm 16:15 Sunny 81 27.1 66 19.1 62 62 N N/A 30.06 1018 10 16 N/A
4:35 pm 16:35 Sunny 80 26.8 66 19 62 62 N N/A 30.03 1017 10 16 N/A
4:55 pm 16:55 Sunny 80 26.8 66 18.9 62 62 N N/A 30.03 1017 10 16 N/A
5:15 pm 17:15 Mostly Cloudy 81 27.3 65 18.5 59 59 N N/A 30.03 1017 10 16 N/A
5:35 pm 17:35 Sunny 82 27.8 65 18.4 57 57 N N/A 30.03 1017 10 16 N/A
5:55 pm 17:55 Sunny 82 27.8 65 18.5 57 57 N N/A 30.03 1017 10 16 N/A
6:15 pm 18:15 Mostly Cloudy with Thunderstorms 79 26.3 67 19.5 66 66 NNE 9 15 30.03 1017 7 11 N/A
6:35 pm 18:35 Cloudy with Mist and Fog 71 21.9 68 20 89 89 NW 7 11 30.06 1018 3 5 0.34 8.64
6:55 pm 18:55 Cloudy with Nearby Thunderstorms 71 21.9 67 19.7 87 87 N N/A 30.06 1018 10 16 0.34 8.64
7:15 pm 19:15 Mostly Cloudy with Light Rain 72 22 69 20.5 91 91 N 6 9 30.06 1018 7 11 0.02 0.51
7:35 pm 19:35 Partly Cloudy with Thunderstorms 72 22.4 70 21 92 92 NNE 5 7 30.06 1018 10 16 0.02 0.51
7:55 pm 19:55 Sunny 73 22.9 70 21 89 89 N N/A 30.06 1018 10 16 0.02 0.51
8:15 pm 20:15 Sunny with Mist and Fog 72 22.2 71 21.4 95 95 NW 3 6 30.06 1018 5 8 N/A
8:35 pm 20:35 Sunny with Mist and Fog 71 21.8 70 21 95 95 N N/A 30.06 1018 5 8 N/A
8:55 pm 20:55 Clear with Mist and Fog 70 21.3 70 21 98 98 N N/A 30.06 1018 3 5 N/A
9:15 pm 21:15 Mostly Cloudy with Fog 69 20.4 68 20.1 98 98 N N/A 30.06 1018 1 1 N/A
9:35 pm 21:35 Mostly Cloudy with Mist and Fog 68 20.2 68 20 99 99 NNW 5 7 30.06 1018 1 2 N/A
9:55 pm 21:55 Mostly Clear with Mist and Fog 68 19.9 67 19.7 99 99 N N/A 30.06 1018 3 4 N/A
10:15 pm 22:15 Mostly Cloudy with Mist and Fog 68 20.1 68 19.9 99 99 N N/A 30.06 1018 2 2 N/A
10:35 pm 22:35 Mostly Cloudy with Fog 67 19.6 67 19.5 99 99 N N/A 30.09 1019 0 0 N/A
10:55 pm 22:55 Mostly Cloudy with Mist and Fog 67 19.6 67 19.5 99 99 N N/A 30.09 1019 1 1 N/A
11:15 pm 23:15 Mostly Cloudy with Fog 68 19.8 67 19.7 99 99 N N/A 30.09 1019 1 1 N/A
11:35 pm 23:35 Clear with Mist and Fog 67 19.3 66 19.1 99 99 N 3 6 30.09 1019 2 3 N/A
11:55 pm 23:55 Mostly Cloudy with Mist and Fog 67 19.2 66 19.1 99 99 N 3 6 30.09 1019 2 2 N/A

Powered by AerisWeather